Regional Weather Roundup
Issued by NWS

Home | Current Version | Previous Version | Text Only | Print | Product List | Glossary On
Versions: 1 2 3 4 5 6 7 8 9 10 11 12 13 14 15 16 17 18 19 20 21 22 23 24 25 26 27 28 29 30 31 32 33 34 35 36 37 38 39 40 41 42 43 44 45 46 47 48 49 50
000
ASUS43 KFSD 281002
RWRSD

WEATHER ROUNDUP FOR SOUTH DAKOTA
NATIONAL WEATHER SERVICE SIOUX FALLS SD
400 AM CST WED JAN 28 2015

NOTE: "FAIR" INDICATES FEW OR NO CLOUDS BELOW 12,000 FEET WITH NO
SIGNIFICANT WEATHER AND/OR OBSTRUCTIONS TO VISIBILITY.


SDZ001>005-009-010-012>017-281100-
NORTHWEST AND NORTH CENTRAL SOUTH DAKOTA

CITY           SKY/WX    TMP DP  RH WIND       PRES   REMARKS
BUFFALO          N/A     42  31  64 W10       29.71R
FAITH            N/A     41  29  62 W12       29.73F
MOBRIDGE       CLOUDY    32  30  92 N5        29.70F WCI  27
$$

SDZ012>016-024>037-041>051-057-063-072>074-281100-
SOUTHWEST AND SOUTH CENTRAL SOUTH DAKOTA

CITY           SKY/WX    TMP DP  RH WIND       PRES   REMARKS
RAPID CTY ARPT MOCLDY    43  27  53 N8        29.77S
PIERRE         MOCLDY    31  30  96 CALM      29.69F
CUSTER         MOCLDY    41  26  55 W12       29.86F
ELLSWORTH AFB  MOCLDY    41  28  58 NW3       29.77S
PHILIP         MOCLDY    40  29  64 W10       29.74S
PINE RIDGE     MOCLDY    44  28  53 NW9       29.84F
WINNER         FAIR      55  31  39 SW13      29.73F
$$

SDZ004>011-016>023-039-040-281100-
NORTHEAST SOUTH DAKOTA

CITY           SKY/WX    TMP DP  RH WIND       PRES   REMARKS
ABERDEEN       CLEAR     32  28  85 SE3       29.77F
WATERTOWN      MOCLDY    33  30  88 S12       29.79F WCI  24
SISSETON         N/A     32  32 100 S14       29.83F WCI  22
$$

SDZ017-020-022-023-036>040-048>070-281100-
SOUTHEAST SOUTH DAKOTA

CITY           SKY/WX    TMP DP  RH WIND       PRES   REMARKS
SIOUX FALLS    PTCLDY    34  30  85 SE10      29.86F WCI  26
HURON          CLEAR     34  30  85 S12       29.76F WCI  25
MITCHELL       PTCLDY    35  31  85 S14       29.79F WCI  26
YANKTON        PTCLDY    32  28  86 E9        29.86S WCI  24
$$

ABBREVIATIONS USED IN REMARKS
   TC - TEMPERATURE IN CELSIUS
  WCI - WIND CHILL INDEX
   HX - HEAT INDEX
  VSB - VISIBILITY



USA.gov is the U.S. government's official web portal to all federal, state and local government web resources and services.